Weather History for KCBK - September, 2014

Change the Weather History Date:

Thursday, September 4, 2014

  Actual Average (KGLD) Record (KGLD)
Temperature  
Mean Temperature 70 °F 70 °F  
Max Temperature 82 °F 84 °F 100 °F (1946)
Min Temperature 59 °F 55 °F 39 °F (2008)
Degree Days  
Heating Degree Days 0 1  
Month to date heating degree days 4  
Since 1 July heating degree days 16  
Cooling Degree Days 6 6  
Month to date cooling degree days 24  
Year to date cooling degree days 857  
Growing Degree Days 20 (Base 50)    
Moisture  
Dew Point 58 °F    
Average Humidity 57    
Maximum Humidity 88    
Minimum Humidity 42    
Precipitation  
Precipitation 0.00 in 0.05 in 1.19 in (1940)
Month to date precipitation 0.20  
Year to date precipitation 16.10  
Snow  
Snow 0.00 in 0.00 in - ()
Month to date snowfall 0.0  
Since 1 July snowfall 0.0  
Since 1 September snowfall 0.0  
Snow Depth -    
Sea Level Pressure  
Sea Level Pressure 29.89 in    
Wind  
Wind Speed 15 mph (North)    
Max Wind Speed 22 mph    
Max Gust Speed 30 mph    
Visibility 10 miles    
Events Rain    
T = Trace of Precipitation, MM = Missing Value Source: NWS Daily Summary

Daily Weather History Graph

Daily Weather History Graph

Search for Another Location

Airport or City:

Trip Planner

Search our weather history database for the weather conditions in past years. The results will help you decide how hot, cold, wet, or windy it might be!

Date:

Astronomy

Sep. 04, 2014 Rise Set
Actual Time 7:15 AM CDT 8:10 PM CDT
Civil Twilight 6:47 AM CDT 8:37 PM CDT
Nautical Twilight 6:15 AM CDT 9:10 PM CDT
Astronomical Twilight 5:41 AM CDT 9:43 PM CDT
Moon 4:48 PM CDT (9/4) 2:09 AM CDT (9/4)
Length of Visible Light 13h 49m
Length of Day
12h 54m
Waxing Gibbous, 74% of the Moon is Illuminated
Sep 4
Waxing Gibbous
Sep 8
Full
Sep 15
Last Quarter
Sep 24
New
Oct 1
First Quarter

Hourly Weather History & Observations

Time (CDT) Temp. Heat Index Dew Point Humidity Pressure Visibility Wind Dir Wind Speed Gust Speed Precip Events Conditions
12:15 AM 82.4 °F 82.5 °F 59.0 °F 45% 29.77 in 10.0 mi South 18.4 mph 27.6 mph N/A   Clear
12:35 AM 80.6 °F 81.1 °F 59.0 °F 48% 29.76 in 10.0 mi South 17.3 mph 28.8 mph N/A   Clear
12:55 AM 80.6 °F 81.1 °F 59.0 °F 48% 29.76 in 10.0 mi South 18.4 mph 27.6 mph N/A   Clear
1:15 AM 80.6 °F 81.5 °F 60.8 °F 51% 29.76 in 10.0 mi South 17.3 mph 24.2 mph N/A   Clear
1:35 AM 78.8 °F - 60.8 °F 54% 29.76 in 10.0 mi South 17.3 mph 23.0 mph N/A   Clear
1:55 AM 77.0 °F - 60.8 °F 57% 29.75 in 10.0 mi South 12.7 mph 21.9 mph N/A   Clear
2:15 AM 77.0 °F - 60.8 °F 57% 29.75 in 10.0 mi South 13.8 mph 23.0 mph N/A   Clear
2:35 AM 77.0 °F - 60.8 °F 57% 29.75 in 10.0 mi South 15.0 mph 21.9 mph N/A   Clear
2:55 AM 75.2 °F - 60.8 °F 61% 29.75 in 10.0 mi South 15.0 mph 24.2 mph N/A   Clear
3:15 AM 75.2 °F - 60.8 °F 61% 29.75 in 10.0 mi South 12.7 mph 18.4 mph N/A   Clear
3:35 AM 73.4 °F - 60.8 °F 65% 29.75 in 10.0 mi South 13.8 mph 18.4 mph N/A   Clear
3:50 AM 73.4 °F - 60.8 °F 65% 29.75 in 10.0 mi South 12.7 mph - N/A   Clear
4:15 AM 73.4 °F - 60.8 °F 65% 29.75 in 10.0 mi South 13.8 mph - N/A   Clear
4:35 AM 73.4 °F - 62.6 °F 69% 29.75 in 10.0 mi South 15.0 mph 20.7 mph N/A   Clear
4:55 AM 75.2 °F - 62.6 °F 65% 29.75 in 10.0 mi South 11.5 mph 19.6 mph N/A   Clear
5:15 AM 75.2 °F - 62.6 °F 65% 29.75 in 10.0 mi South 12.7 mph 23.0 mph N/A   Clear
5:35 AM 73.4 °F - 62.6 °F 69% 29.75 in 10.0 mi South 11.5 mph 18.4 mph N/A   Clear
5:55 AM 73.4 °F - 62.6 °F 69% 29.75 in 10.0 mi South 15.0 mph 19.6 mph N/A   Clear
6:15 AM 73.4 °F - 62.6 °F 69% 29.75 in 10.0 mi South 12.7 mph 19.6 mph N/A   Clear
6:35 AM 73.4 °F - 62.6 °F 69% 29.75 in 10.0 mi South 13.8 mph 19.6 mph N/A   Clear
6:55 AM 73.4 °F - 62.6 °F 69% 29.76 in 10.0 mi SSW 15.0 mph 18.4 mph N/A   Clear
7:15 AM 73.4 °F - 62.6 °F 69% 29.77 in 10.0 mi SSW 10.4 mph 17.3 mph N/A   Clear
7:35 AM 73.4 °F - 62.6 °F 69% 29.78 in 10.0 mi SSW 9.2 mph - N/A   Clear
7:55 AM 73.4 °F - 62.6 °F 69% 29.78 in 10.0 mi SSW 12.7 mph 17.3 mph N/A   Clear
8:15 AM 73.4 °F - 62.6 °F 69% 29.79 in 10.0 mi SW 10.4 mph - N/A   Clear
8:35 AM 71.6 °F - 62.6 °F 73% 29.80 in 10.0 mi WSW 9.2 mph - N/A   Clear
8:55 AM 73.4 °F - 62.6 °F 69% 29.81 in 10.0 mi West 15.0 mph 19.6 mph N/A   Clear
9:15 AM 71.6 °F - 55.4 °F 57% 29.84 in 10.0 mi WNW 13.8 mph 17.3 mph N/A   Clear
9:35 AM 71.6 °F - 57.2 °F 60% 29.84 in 10.0 mi NW 16.1 mph - N/A   Clear
9:55 AM 71.6 °F - 60.8 °F 69% 29.85 in 10.0 mi NNW 17.3 mph 24.2 mph N/A   Clear
10:15 AM 71.6 °F - 59.0 °F 64% 29.86 in 10.0 mi NNW 19.6 mph 28.8 mph N/A   Clear
10:35 AM 71.6 °F - 59.0 °F 64% 29.88 in 10.0 mi North 18.4 mph 26.5 mph N/A   Clear
11:10 AM 73.4 °F - 55.4 °F 53% 29.90 in 10.0 mi North 21.9 mph 26.5 mph N/A   Clear
11:35 AM 75.2 °F - 55.4 °F 50% 29.91 in 10.0 mi North 19.6 mph 29.9 mph N/A   Clear
11:55 AM 75.2 °F - 53.6 °F 47% 29.92 in 10.0 mi North 19.6 mph 27.6 mph N/A   Clear
12:15 PM 77.0 °F - 53.6 °F 44% 29.93 in 10.0 mi North 18.4 mph 25.3 mph N/A   Clear
12:35 PM 77.0 °F - 53.6 °F 44% 29.93 in 10.0 mi North 16.1 mph 28.8 mph N/A   Clear
12:55 PM 78.8 °F - 55.4 °F 44% 29.93 in 10.0 mi North 17.3 mph 23.0 mph N/A   Clear
1:15 PM 78.8 °F - 53.6 °F 42% 29.93 in 10.0 mi North 19.6 mph 26.5 mph N/A   Clear
1:35 PM 78.8 °F - 55.4 °F 44% 29.94 in 10.0 mi NNE 15.0 mph 19.6 mph N/A   Clear
1:55 PM 78.8 °F - 53.6 °F 42% 29.95 in 10.0 mi North 17.3 mph 24.2 mph N/A   Clear
2:15 PM 78.8 °F - 53.6 °F 42% 29.95 in 10.0 mi North 15.0 mph 23.0 mph N/A   Clear
2:35 PM 78.8 °F - 53.6 °F 42% 29.95 in 10.0 mi North 15.0 mph 21.9 mph N/A   Clear
2:55 PM 78.8 °F - 55.4 °F 44% 29.95 in 10.0 mi NNE 15.0 mph 20.7 mph N/A   Clear
3:15 PM 80.6 °F 80.5 °F 55.4 °F 42% 29.95 in 10.0 mi NNE 12.7 mph 20.7 mph N/A   Clear
3:35 PM 80.6 °F 80.5 °F 55.4 °F 42% 29.95 in 10.0 mi NNE 12.7 mph 20.7 mph N/A   Clear
3:55 PM 80.6 °F 80.8 °F 57.2 °F 45% 29.94 in 10.0 mi NNE 16.1 mph 21.9 mph N/A   Clear
4:15 PM 80.6 °F 81.1 °F 59.0 °F 48% 29.95 in 10.0 mi NNE 13.8 mph 19.6 mph N/A   Clear
4:35 PM 80.6 °F 81.1 °F 59.0 °F 48% 29.95 in 10.0 mi North 8.1 mph 18.4 mph N/A   Clear
4:55 PM 80.6 °F 81.5 °F 60.8 °F 51% 29.95 in 10.0 mi NNE 13.8 mph 19.6 mph N/A   Clear
5:15 PM 78.8 °F - 60.8 °F 54% 29.95 in 10.0 mi NNE 9.2 mph - N/A   Clear
5:35 PM 80.6 °F 81.5 °F 60.8 °F 51% 29.96 in 10.0 mi North 12.7 mph - N/A   Clear
5:55 PM 78.8 °F - 59.0 °F 51% 29.96 in 10.0 mi NNE 10.4 mph 20.7 mph N/A   Clear
6:15 PM 78.8 °F - 59.0 °F 51% 29.97 in 10.0 mi North 10.4 mph 19.6 mph N/A   Clear
6:35 PM 77.0 °F - 59.0 °F 54% 29.97 in 10.0 mi North 12.7 mph 18.4 mph N/A   Clear
6:55 PM 77.0 °F - 57.2 °F 50% 29.97 in 10.0 mi North 16.1 mph 21.9 mph N/A   Clear
7:15 PM 75.2 °F - 57.2 °F 53% 29.98 in 10.0 mi North 15.0 mph 19.6 mph N/A   Clear
7:35 PM 73.4 °F - 55.4 °F 53% 29.98 in 10.0 mi NNE 10.4 mph - N/A   Clear
7:55 PM 73.4 °F - 55.4 °F 53% 29.98 in 10.0 mi NNE 12.7 mph 18.4 mph N/A   Clear
8:15 PM 71.6 °F - 55.4 °F 57% 29.99 in 10.0 mi North 11.5 mph - N/A   Clear
8:35 PM 71.6 °F - 53.6 °F 53% 30.01 in 10.0 mi North 9.2 mph - N/A   Clear
8:55 PM 69.8 °F - 53.6 °F 56% 30.02 in 10.0 mi NNE 11.5 mph - N/A   Clear
9:15 PM 69.8 °F - 55.4 °F 60% 30.03 in 10.0 mi NNE 12.7 mph - N/A   Clear
9:35 PM 69.8 °F - 53.6 °F 56% 30.04 in 10.0 mi NE 13.8 mph - N/A   Clear
10:15 PM 69.8 °F - 53.6 °F 56% 30.07 in 10.0 mi NE 13.8 mph - N/A   Scattered Clouds
10:35 PM 69.8 °F - 53.6 °F 56% 30.17 in 10.0 mi West 18.4 mph 25.3 mph N/A   Overcast
10:55 PM 62.6 °F - 55.4 °F 77% 30.17 in 7.0 mi NNW 12.7 mph - N/A Rain Rain
11:15 PM 60.8 °F - 55.4 °F 82% 30.20 in 10.0 mi North 8.1 mph - N/A Rain Light Rain
11:35 PM 59.0 °F - 55.4 °F 88% 30.18 in 10.0 mi North 12.7 mph 18.4 mph N/A Rain Light Rain
11:55 PM 59.0 °F - 55.4 °F 88% 30.18 in 10.0 mi NNE 11.5 mph 18.4 mph N/A   Mostly Cloudy